KD5NDU-15 Weather Reports


Display with metric or nautical units.
time (UTC)temp
F
wind
direction
speed
MPH
gust
MPH
rain 1hr
in
rain 24hr
in
rain mn
in
humidity
%
barometer
mb
20260506235647 57 63 0.0 2.0 0.05 0.05 0.05 97 1010.0
20260506235147 57 106 0.0 2.0 0.05 0.05 0.05 96 1010.2
20260506234647 58 65 0.0 4.0 0.05 0.05 0.05 96 1010.1
20260506234147 58 22 0.0 1.0 0.04 0.04 0.04 96 1010.2
20260506233647 58 22 0.0 3.0 0.04 0.04 0.04 96 1010.2
20260506233147 58 26 0.0 2.0 0.04 0.04 0.04 96 1010.3
20260506232647 58 83 0.0 0.0 0.00 0.00 0.00 95 1010.6
20260506232147 58 84 0.0 1.0 0.00 0.00 0.00 95 1010.6
20260506231647 58 89 0.0 2.0 0.00 0.00 0.00 95 1010.7
20260506231147 58 89 0.0 2.0 0.00 0.00 0.00 94 1010.8
20260506230647 58 12 0.0 1.0 0.00 0.00 0.00 95 1010.6
20260506230147 58 43 0.0 2.0 0.00 0.00 0.00 94 1010.6
20260506225647 58 60 0.0 2.0 0.00 0.00 0.00 94 1010.6
20260506225147 58 57 0.0 1.0 0.00 0.00 0.00 94 1010.7
20260506224647 58 61 0.0 3.0 0.00 0.00 0.00 94 1010.5
20260506224147 58 39 0.0 1.0 0.00 0.00 0.00 94 1010.4
20260506223647 58 71 1.0 3.0 0.00 0.00 0.00 94 1010.4
20260506223147 58 136 1.0 3.0 0.00 0.00 0.00 94 1010.3
20260506222647 58 268 1.0 3.0 0.00 0.00 0.00 95 1010.0
20260506222147 58 68 1.0 4.0 0.00 0.00 0.00 95 1009.6
20260506221647 58 23 1.0 5.0 0.00 0.00 0.00 94 1009.4
20260506221147 57 359 1.0 6.0 0.00 0.00 0.00 95 1009.6
20260506220651 57 260 0.0 2.0 0.00 0.00 0.00 95 1009.7
20260506220147 57 32 1.0 3.0 0.00 0.00 0.00 96 1009.3
20260506215647 57 25 1.0 5.0 0.00 0.00 0.00 95 1009.7
20260506215147 57 89 1.0 4.0 0.00 0.00 0.00 95 1009.6
20260506214647 57 161 1.0 4.0 0.00 0.00 0.00 96 1010.2
20260506214149 57 20 1.0 2.0 0.00 0.00 0.00 97 1010.6
20260506213657 57 166 2.0 3.0 0.00 0.00 0.00 96 1010.6
20260506213147 57 30 2.0 4.0 0.00 0.00 0.00 96 1010.8
20260506212647 57 348 1.0 5.0 0.00 0.00 0.00 97 1010.7
20260506212147 57 8 1.0 2.0 0.00 0.00 0.00 96 1010.7
20260506211647 57 12 1.0 3.0 0.00 0.00 0.00 96 1011.0
20260506211147 57 272 1.0 3.0 0.00 0.00 0.00 96 1011.2
20260506210648 58 354 2.0 4.0 0.00 0.00 0.00 96 1011.3
20260506210149 58 20 1.0 4.0 0.00 0.00 0.00 96 1011.2
20260506205648 58 304 2.0 3.0 0.00 0.00 0.00 96 1011.1
20260506205152 59 23 2.0 4.0 0.00 0.00 0.00 95 1011.0
20260506204648 59 28 3.0 4.0 0.00 0.00 0.00 94 1011.2
20260506204148 59 7 2.0 4.0 0.00 0.00 0.00 94 1011.0
20260506203648 60 359 1.0 4.0 0.00 0.00 0.00 94 1011.0
20260506203150 60 356 1.0 2.0 0.00 0.00 0.00 94 1010.8
20260506202648 60 0 1.0 3.0 0.00 0.00 0.00 94 1010.4
20260506202150 60 47 1.0 2.0 0.00 0.00 0.00 94 1010.3
20260506201716 60 1 1.0 2.0 0.00 0.00 0.00 94 1010.3
20260506201148 60 9 1.0 2.0 0.00 0.00 0.00 94 1010.2
20260506200702 60 9 1.0 2.0 0.00 0.00 0.00 94 1010.2
20260506200150 60 358 1.0 2.0 0.00 0.00 0.00 94 1010.3
20260506195650 60 309 1.0 3.0 0.00 0.00 0.00 95 1010.3
20260506195148 60 25 1.0 3.0 0.00 0.00 0.00 94 1010.3
20260506194648 61 355 1.0 5.0 0.00 0.00 0.00 94 1010.6
20260506194148 61 7 1.0 5.0 0.00 0.00 0.00 94 1010.5
20260506193648 61 30 1.0 3.0 0.00 0.00 0.00 95 1010.6
20260506193150 61 13 1.0 2.0 0.00 0.00 0.00 95 1010.6
20260506192648 61 13 1.0 5.0 0.00 0.00 0.00 94 1010.7
20260506192148 61 359 1.0 3.0 0.00 0.00 0.00 95 1010.7
20260506191650 61 302 1.0 2.0 0.00 0.00 0.00 95 1010.8
20260506191148 61 3 1.0 2.0 0.00 0.00 0.00 94 1010.6
20260506190648 61 342 1.0 3.0 0.00 0.00 0.00 94 1010.6
20260506190148 61 352 1.0 2.0 0.00 0.00 0.00 95 1010.6
20260506185716 61 331 1.0 2.0 0.00 0.00 0.00 94 1010.7
20260506185152 61 5 1.0 2.0 0.00 0.00 0.00 94 1010.6
20260506184648 61 6 0.0 2.0 0.00 0.00 0.00 95 1010.6
20260506184151 61 18 1.0 1.0 0.00 0.00 0.00 96 1010.3
20260506183715 61 18 1.0 2.0 0.00 0.00 0.00 95 1010.3
20260506183148 61 20 1.0 3.0 0.00 0.00 0.00 95 1010.3
20260506182648 61 6 1.0 2.0 0.00 0.00 0.00 95 1010.6
20260506182148 61 16 1.0 3.0 0.00 0.00 0.00 96 1010.6
20260506181648 61 4 1.0 2.0 0.00 0.00 0.00 95 1010.6
20260506181148 61 359 1.0 3.0 0.00 0.00 0.00 95 1010.8
20260506180650 61 11 1.0 3.0 0.00 0.00 0.00 95 1010.7
20260506180148 61 295 1.0 3.0 0.00 0.00 0.00 95 1010.6
20260506175648 62 259 1.0 3.0 0.00 0.00 0.00 95 1010.6
20260506175150 62 1 1.0 2.0 0.00 0.00 0.00 95 1010.4
20260506174648 62 319 1.0 1.0 0.00 0.00 0.00 97 1010.6
20260506174148 61 318 1.0 2.0 0.00 0.00 0.00 96 1010.5
20260506173652 61 20 1.0 3.0 0.00 0.00 0.00 96 1010.7
20260506173148 61 359 1.0 2.0 0.00 0.00 0.00 96 1010.8
20260506172648 61 12 1.0 3.0 0.00 0.00 0.00 96 1010.8
20260506172148 61 20 1.0 2.0 0.00 0.00 0.00 96 1010.8
20260506171652 61 15 1.0 2.0 0.00 0.00 0.00 96 1010.9
20260506171152 61 28 1.0 3.0 0.00 0.00 0.00 96 1010.7
20260506170648 61 22 1.0 3.0 0.00 0.00 0.00 96 1010.6
20260506170148 62 359 1.0 2.0 0.00 0.00 0.00 96 1010.5
20260506165648 62 46 1.0 3.0 0.00 0.00 0.00 96 1010.5
20260506165148 62 1 2.0 3.0 0.00 0.00 0.00 96 1010.5
20260506164648 62 1 2.0 3.0 0.00 0.00 0.00 95 1010.5
20260506164214 63 4 1.0 3.0 0.00 0.00 0.00 95 1010.4
20260506163650 64 1 1.0 2.0 0.00 0.00 0.00 96 1010.3
20260506163148 64 1 1.0 2.0 0.00 0.00 0.00 96 1010.3
20260506162648 64 11 1.0 2.0 0.00 0.00 0.00 97 1010.4
20260506162148 65 12 1.0 2.0 0.00 0.00 0.00 97 1010.1
20260506161648 65 13 1.0 2.0 0.00 0.00 0.00 97 1010.0
20260506161157 65 15 1.0 2.0 0.00 0.00 0.00 97 1009.9
20260506160648 65 15 1.0 2.0 0.00 0.00 0.00 97 1009.9
20260506160148 65 13 1.0 2.0 0.00 0.00 0.00 97 1009.9
20260506155652 65 15 1.0 4.0 0.00 0.00 0.00 97 1009.7
20260506155150 65 10 1.0 2.0 0.00 0.00 0.00 97 1009.8
20260506154648 66 3 1.0 2.0 0.00 0.00 0.00 97 1009.6
20260506154148 66 37 1.0 3.0 0.00 0.00 0.00 97 1009.6
20260506153650 66 20 1.0 2.0 0.00 0.00 0.00 97 1009.6
20260506153148 67 5 0.0 3.0 0.00 0.00 0.00 98 1009.6
20260506152648 67 5 0.0 3.0 0.00 0.00 0.00 98 1009.6
20260506152148 67 256 0.0 1.0 0.00 0.00 0.00 98 1009.5
20260506151648 67 165 0.0 1.0 0.00 0.00 0.00 98 1009.6
20260506151148 67 165 255.0 255.0 0.00 0.00 0.00 98 1009.2
20260506150648 0 767 255.0 255.0 0.00 0.00 0.00
20260506150148 0 767 255.0 255.0 0.00 0.00 0.00
20260506123957 0 767 255.0 255.0 0.00 0.00 0.00
20260506123252 0 767 255.0 255.0 0.00 0.00 0.00
20260506031925 70 179 1.0 2.0 0.00 0.00 0.00 89 1006.9
20260506031417 70 205 1.0 3.0 0.00 0.00 0.00 89 1006.9
20260506030917 70 213 1.0 2.0 0.00 0.00 0.00 89 1006.9
20260506030417 70 233 1.0 3.0 0.00 0.00 0.00 89 1007.0
20260506025917 70 86 2.0 4.0 0.00 0.00 0.00 89 1006.9
20260506025417 70 256 1.0 4.0 0.00 0.00 0.00 89 1006.8
20260506024917 70 238 1.0 2.0 0.00 0.00 0.00 88 1006.7
20260506024417 70 161 1.0 4.0 0.00 0.00 0.00 88 1006.7
20260506023917 70 272 1.0 2.0 0.00 0.00 0.00 88 1006.8
20260506023417 70 177 1.0 3.0 0.00 0.00 0.00 88 1006.9